Terminal Aerodrome Forecast
Issued by NWS

Current Version | Previous Version | Graphics & Text | Print | Product List | Glossary On
Versions: 1 2 3 4 5 6 7 8 9 10 11 12 13 14 15 16 17 18 19 20 21 22 23 24 25 26 27 28 29 30 31 32 33 34 35 36 37 38 39 40
000
FTUS41 KRNK 180934 AAB
TAFLWB
TAF AMD
KLWB 180934Z 1810/1906 00000KT 4SM BR SCT250
      TEMPO 1811/1813 1/4SM FG VV001
     FM181330 VRB03KT P6SM SCT025
     FM181700 05005KT P6SM BKN045=

USA.gov is the U.S. government's official web portal to all federal, state and local government web resources and services.